Temperature
20 20 20 20 20 20 20 20 20 20 20 20 20 20 20 20 20 20 20 20 20 20 20 20 20 20 20 20 19 19 19 19 19 19 19 19 19 19 19 18 18 19 19
20 20 20 20 20 20 20 20 20 20 20 20 20 20 20 20 20 20 20 20 20 20 20 20 20 20 19 19 19 19 19 19 19 19 19 19 19 19 19 19 18 18 18
21 20 20 20 20 20 20 20 20 20 20 20 20 20 20 20 20 20 20 20 20 20 20 20 20 19 19 19 19 19 19 19 19 19 19 19 19 19 19 19 18 18 18
21 21 21 20 20 20 20 20 20 20 20 20 20 20 20 20 20 20 20 20 20 20 19 19 19 19 19 19 19 19 19 19 19 19 19 19 19 19 19 19 18 18 18
21 21 21 21 21 21 20 20 20 20 20 20 20 20 20 20 20 20 20 20 20 20 19 19 19 19 19 19 19 19 18 18 19 19 18 19 19 19 19 19 18 18 18
21 21 21 21 21 21 21 21 20 20 20 20 20 20 20 20 20 20 20 20 20 20 19 19 19 19 19 19 19 18 18 18 19 19 18 18 19 19 19 19 18 18 18
21 21 21 21 21 21 21 21 20 20 20 20 20 20 20 20 20 20 20 20 20 20 19 19 19 19 19 19 19 18 18 18 18 18 18 19 19 19 19 19 18 18 18
21 21 21 20 20 21 21 21 20 20 20 20 20 20 20 19 20 20 20 20 19 19 19 19 19 19 19 19 18 18 18 18 18 18 18 18 19 19 19 19 18 18 18
20 20 20 20 20 20 20 20 20 20 20 20 20 20 20 19 19 19 19 19 19 19 19 19 19 19 19 19 18 18 18 18 18 18 18 18 18 19 19 18 18 18 18
19 19 19 19 19 19 19 19 19 19 19 19 19 19 19 19 19 19 19 19 19 19 19 19 19 19 19 19 18 18 18 18 18 18 18 18 18 18 19 18 18 18 18
19 19 19 19 19 19 19 19 19 19 19 19 19 19 19 19 19 19 19 19 19 19 19 19 19 19 19 19 18 18 18 18 18 18 18 18 18 18 19 19 18 18 18
18 18 18 18 19 19 19 19 19 19 19 19 19 19 19 19 19 19 19 18 18 18 19 19 19 19 19 19 19 18 18 18 18 18 18 18 18 18 19 19 18 18 18
18 18 18 18 18 18 19 19 19 18 18 18 18 18 19 19 18 18 19 18 18 18 19 19 19 19 19 19 19 19 18 18 18 18 18 18 18 18 19 19 18 18 18
17 17 17 17 17 18 18 18 18 18 18 18 18 18 19 19 19 18 19 19 18 18 18 19 19 19 19 19 19 19 18 18 18 18 18 18 18 18 19 19 18 18 18
17 17 17 17 17 17 17 17 17 18 18 18 18 18 18 18 18 18 18 19 18 18 18 19 19 19 19 19 19 19 18 18 18 18 18 18 18 18 19 19 18 18 18
17 17 17 17 17 17 17 17 17 17 17 17 18 18 18 18 18 18 18 18 18 18 18 18 19 19 19 18 19 19 19 18 18 18 18 18 18 18 18 19 18 18 18
16 16 16 16 16 16 16 16 16 17 17 17 17 17 18 18 18 18 18 18 18 18 18 18 18 18 18 18 19 19 19 19 19 18 19 19 19 18 18 18 18 18 18
16 15 15 15 15 15 15 16 16 16 16 16 17 17 17 17 17 17 18 18 18 18 18 18 18 18 18 18 19 19 19 19 19 19 19 19 19 18 18 18 18 18 18
15 15 15 15 15 15 15 15 15 15 16 16 16 16 17 17 17 17 17 18 18 18 18 18 18 18 18 18 19 19 19 19 19 19 19 19 19 18 18 18 18 18 18
14 14 14 14 14 14 14 15 15 15 15 15 15 16 16 16 16 16 17 17 17 17 17 18 18 18 18 18 18 18 19 19 19 19 19 19 19 18 18 18 18 18 18
14 14 14 14 14 14 14 14 14 15 15 15 15 15 15 16 16 16 16 16 17 17 17 17 17 17 17 18 18 18 18 19 19 19 19 19 19 18 18 18 18 18 18
13 13 13 13 13 13 13 13 14 14 14 14 15 15 15 15 15 15 16 16 16 16 17 17 17 17 17 17 17 17 18 18 18 18 19 19 18 18 18 18 18 18 18
13 13 13 13 13 13 13 13 13 14 14 14 14 15 15 15 15 15 15 16 16 16 16 17 17 17 17 17 17 17 17 18 18 18 18 18 18 18 18 18 18 18 18
13 12 12 12 12 12 12 13 13 13 13 13 14 14 14 14 15 15 15 15 16 16 16 16 16 16 16 17 17 17 17 18 18 18 18 18 18 18 18 18 18 18 18
13 12 12 12 12 12 12 12 12 13 13 13 13 14 14 14 14 14 15 15 15 16 16 16 16 16 16 16 16 17 17 17 17 18 18 18 18 18 17 18 18 18 18
13 13 12 12 12 12 12 12 12 12 12 13 13 13 14 14 14 14 14 15 15 15 15 16 16 16 16 16 16 16 16 16 17 17 17 17 17 17 17 17 17 17 18
Wind_Speed
6 9 14 13 13 13 13 12 12 11 10 10 9 8 8 8 8 8 7 7 7 7 7 7 7 7 8 8 8 9 10 10 10 10 10 11 11 11 11 11 11 10 11
10 12 14 14 13 13 12 12 11 11 10 9 8 8 7 7 7 6 6 6 6 6 6 6 6 7 7 7 7 8 8 8 8 8 9 10 11 11 11 10 10 9 11
12 13 14 14 13 12 12 11 11 10 10 9 8 7 7 6 6 5 5 5 5 5 5 5 6 6 6 6 5 6 7 7 7 7 7 7 8 10 10 10 9 10 10
14 13 13 13 13 12 11 11 10 9 9 8 8 7 7 6 6 5 5 4 4 5 4 5 5 6 6 5 4 4 6 7 7 7 6 5 7 9 9 9 9 9 9
13 13 14 14 13 12 11 10 9 9 8 8 7 7 7 6 6 5 4 4 4 4 4 4 4 5 5 4 3 3 4 6 7 8 8 7 7 8 9 9 8 8 8
12 15 16 16 15 13 12 11 10 9 9 8 7 7 7 6 6 5 5 4 4 4 4 4 4 4 5 4 3 2 3 5 6 7 7 7 6 8 9 9 8 8 8
12 14 16 18 17 15 14 13 12 11 10 9 9 8 7 7 6 6 5 5 5 4 4 4 4 4 5 4 3 1 2 3 5 7 6 6 7 8 9 8 8 8 8
11 11 13 17 16 15 15 14 14 13 12 11 10 9 9 8 8 7 6 6 5 5 5 5 5 5 5 5 4 3 1 2 4 5 7 7 8 8 8 8 8 8 8
4 4 6 11 13 14 14 15 15 14 14 13 12 11 10 10 9 8 8 7 7 6 6 6 6 6 6 6 6 5 3 1 4 7 7 7 8 8 8 7 7 8 8
8 6 4 0 4 8 12 15 15 15 15 14 14 13 12 12 11 10 10 9 9 8 8 8 8 8 8 8 7 6 4 2 4 7 8 9 10 9 8 8 8 8 8
8 7 6 6 5 4 6 11 14 14 15 15 14 14 13 12 12 11 11 12 11 11 10 10 10 9 9 9 9 8 5 3 4 8 9 11 11 10 9 8 8 8 7
6 5 5 5 6 7 5 5 7 8 10 12 12 13 12 12 12 12 13 15 15 14 13 12 11 11 10 8 9 9 5 4 5 8 10 13 12 11 10 9 8 8 7
3 4 3 3 4 5 4 4 2 3 5 8 10 12 12 11 10 11 10 12 14 15 12 11 11 10 9 8 8 8 7 6 7 10 12 15 13 12 11 10 9 8 8
5 4 4 3 2 3 4 3 3 3 3 4 7 9 9 6 6 7 7 9 10 10 9 9 7 9 9 10 9 8 8 7 9 11 14 16 15 13 12 11 10 9 8
6 6 5 5 4 3 3 3 2 3 4 5 5 7 8 5 5 4 4 6 8 9 8 6 6 7 7 8 9 9 8 9 10 12 13 17 16 14 13 12 11 10 9
7 7 6 6 4 4 3 3 3 4 5 5 5 6 6 6 4 4 4 4 6 9 9 7 6 5 6 6 7 8 8 10 11 13 14 16 17 15 14 13 12 11 10
7 8 8 7 5 5 5 4 4 5 5 4 5 7 7 6 5 4 4 5 5 9 9 7 6 5 5 7 9 9 7 9 12 13 14 14 15 15 15 14 13 12 12
8 9 9 9 7 7 6 5 4 5 5 5 6 7 8 8 7 4 5 5 6 7 5 6 5 5 5 5 6 6 7 8 11 13 13 13 14 13 15 15 14 14 13
9 9 9 9 8 8 7 5 5 4 4 5 6 6 7 8 7 5 5 5 6 4 5 6 5 4 4 5 4 4 5 8 10 11 10 12 14 14 14 15 16 15 14
9 9 9 9 8 8 6 5 4 4 4 4 4 6 7 7 7 5 4 5 4 4 5 5 5 5 4 4 3 3 3 5 7 9 10 10 12 13 15 14 15 14 15
9 9 9 9 8 7 6 5 5 5 5 5 4 6 7 7 7 5 5 5 5 5 6 6 5 6 5 3 2 1 1 1 4 6 7 7 8 12 14 14 14 14 14
8 9 8 9 9 8 6 5 4 5 5 5 4 5 7 6 7 6 6 6 6 5 6 7 5 5 5 5 4 3 1 1 1 2 4 6 8 8 9 13 13 14 14
8 8 8 9 9 9 8 6 5 4 4 4 5 5 5 6 6 6 6 7 7 7 7 7 7 8 6 5 4 4 5 5 3 1 2 4 5 6 7 8 11 14 15
7 7 7 8 9 9 8 7 6 5 5 5 5 5 7 6 6 6 6 7 7 7 7 8 7 6 6 5 4 3 2 4 4 3 1 2 4 5 6 6 8 12 15
6 6 7 8 8 8 8 8 7 6 5 5 5 6 6 5 5 5 5 6 7 7 8 8 7 8 7 6 5 4 3 1 2 3 3 3 2 3 4 5 5 8 14
6 6 6 7 8 8 8 8 7 8 8 8 7 7 6 5 5 5 5 5 6 6 7 8 9 9 8 8 6 5 5 4 4 3 3 3 3 3 2 3 4 5 11
Wind_Direction
159 170 156 149 144 141 141 141 142 142 139 133 129 125 121 115 109 104 101 99 97 95 90 88 87 87 86 84 78 73 74 74 76 77 77 78 77 79 88 99 97 98 101
155 162 155 150 145 142 141 142 143 143 141 138 136 133 129 124 118 113 108 105 102 104 101 99 99 97 95 91 83 76 74 72 74 78 78 78 80 82 87 97 100 104 105
148 156 154 151 147 144 143 143 143 143 143 143 142 140 136 133 129 126 121 117 113 111 110 106 108 110 108 102 89 78 71 66 67 85 94 85 82 84 88 94 101 105 107
148 154 156 154 150 147 145 144 145 147 148 149 150 150 148 146 144 142 139 134 127 123 120 118 120 126 125 120 100 76 66 59 63 93 100 91 84 87 90 96 102 106 110
150 157 159 158 155 153 152 151 152 154 156 159 161 162 161 160 157 154 152 149 143 139 139 136 136 142 142 139 120 82 63 59 73 103 105 95 90 95 94 94 101 105 112
158 162 165 165 164 163 163 164 165 166 169 172 174 176 174 173 171 169 167 162 159 159 160 159 158 160 161 162 155 103 63 60 83 124 118 112 103 100 98 95 98 102 107
161 167 172 172 172 173 174 176 178 179 182 185 186 187 187 187 185 184 183 179 175 176 177 179 182 182 183 186 190 165 71 55 102 138 139 131 122 111 103 101 100 104 104
159 166 177 180 181 183 184 186 188 189 191 192 193 193 194 196 196 195 194 191 189 188 189 192 197 198 201 207 215 216 182 80 92 154 154 146 135 120 112 106 103 105 107
99 131 181 190 193 196 198 199 199 199 199 200 200 199 200 202 203 205 205 203 202 201 200 202 208 211 213 219 230 235 225 131 118 156 158 156 147 134 127 119 114 109 109
52 43 26 330 219 219 217 213 211 211 209 208 208 207 207 209 210 212 213 212 213 212 211 211 214 218 221 227 235 241 241 129 143 177 171 170 159 147 139 130 122 115 112
45 35 25 19 357 314 252 230 223 222 221 218 215 215 214 215 216 218 219 218 220 220 218 217 219 222 227 234 240 244 241 157 150 171 179 180 166 156 149 141 134 128 122
36 31 30 19 359 346 317 274 240 227 227 223 220 218 216 214 217 223 225 227 225 223 222 223 225 227 231 237 247 251 232 187 177 181 191 185 172 164 158 152 145 139 133
29 21 18 14 1 356 343 341 317 260 242 232 228 224 218 216 219 224 223 230 229 224 221 225 229 231 230 232 241 244 232 206 200 192 196 187 176 170 166 161 156 151 147
15 1 347 343 343 348 353 345 329 316 282 253 242 232 222 215 213 218 219 218 215 212 209 215 222 232 237 240 241 241 232 215 205 196 196 190 181 175 172 170 165 162 158
10 354 339 333 332 329 337 326 324 296 284 269 267 254 232 224 220 217 221 215 210 208 206 211 218 227 236 243 243 237 222 215 203 191 194 193 184 180 178 176 174 172 170
5 352 340 334 329 328 317 302 288 281 279 278 270 270 249 227 221 212 221 223 217 209 208 212 216 218 230 236 240 234 221 203 197 191 191 191 187 184 182 181 182 180 178
359 352 344 341 349 336 319 301 301 291 287 276 271 272 265 244 226 213 217 223 221 214 209 214 225 222 237 241 241 233 216 197 189 190 188 186 187 188 186 186 186 185 185
0 354 348 349 346 336 326 308 302 297 292 283 279 274 268 258 238 218 217 224 220 211 200 204 211 217 236 243 242 230 208 186 183 186 185 186 186 187 190 191 190 190 190
0 353 349 344 343 337 329 317 311 306 294 286 285 279 273 267 252 232 226 224 213 206 204 210 207 199 217 230 231 223 196 179 178 183 184 188 189 188 187 193 193 193 194
357 354 353 349 346 342 336 327 318 313 301 289 279 276 274 267 256 244 237 232 217 211 208 205 199 196 204 211 220 215 200 184 175 181 187 187 191 191 189 191 194 197 199
357 357 356 354 347 346 340 332 321 313 303 297 283 282 283 274 261 240 240 237 223 217 214 206 195 191 203 193 157 228 332 211 183 184 183 180 187 190 189 192 194 194 197
351 352 352 349 342 339 328 313 289 289 285 279 283 291 284 277 269 255 235 232 225 223 222 210 197 194 200 186 166 151 176 318 270 199 177 178 185 184 186 195 196 195 194
344 345 345 338 338 335 332 325 322 317 310 314 311 300 286 282 270 260 246 236 230 219 224 215 202 196 198 198 189 164 163 201 215 238 188 173 170 170 183 189 196 199 198
330 333 335 335 335 335 338 340 338 330 315 299 300 294 295 286 277 268 255 245 238 226 223 221 211 199 185 191 198 205 179 158 160 186 218 179 165 164 178 187 194 199 200
324 328 331 336 336 337 340 340 339 334 314 306 311 316 313 305 290 281 263 251 244 233 224 218 211 203 195 188 183 175 182 172 157 155 176 182 164 167 169 178 186 195 198
320 328 334 338 335 339 343 344 345 342 338 337 337 335 328 317 308 303 287 265 252 239 231 222 213 208 204 196 190 182 174 174 182 170 163 170 180 186 177 180 176 185 191
Height
1548 1550 1552 1553 1554 1555 1555 1556 1556 1557 1557 1558 1558 1558 1558 1559 1559 1559 1559 1559 1559 1559 1559 1559 1559 1559 1559 1559 1559 1558 1558 1558 1557 1556 1556 1555 1555 1555 1555 1554 1554 1555 1555
1548 1550 1552 1553 1554 1555 1555 1556 1556 1557 1557 1557 1558 1558 1558 1558 1558 1558 1558 1558 1558 1558 1558 1558 1558 1558 1559 1559 1559 1559 1559 1558 1558 1557 1557 1556 1556 1556 1555 1555 1555 1555 1556
1549 1550 1552 1553 1554 1555 1555 1556 1556 1556 1557 1557 1557 1557 1557 1558 1558 1558 1558 1558 1558 1558 1558 1558 1558 1558 1559 1559 1559 1559 1559 1559 1559 1558 1558 1557 1556 1556 1556 1556 1556 1556 1556
1550 1551 1552 1553 1554 1554 1555 1555 1556 1556 1556 1556 1556 1557 1557 1557 1557 1557 1557 1557 1557 1557 1557 1557 1557 1558 1558 1559 1559 1559 1559 1559 1559 1559 1558 1558 1557 1557 1557 1557 1557 1556 1557
1550 1552 1553 1553 1554 1554 1555 1555 1555 1555 1555 1555 1555 1556 1556 1556 1556 1556 1556 1556 1556 1556 1556 1557 1557 1557 1558 1558 1559 1559 1559 1559 1559 1559 1559 1558 1558 1558 1558 1557 1557 1557 1558
1551 1552 1553 1553 1554 1554 1554 1554 1554 1554 1554 1554 1555 1555 1555 1555 1555 1555 1555 1555 1555 1555 1555 1556 1556 1557 1557 1558 1559 1559 1559 1559 1559 1559 1559 1559 1559 1559 1558 1558 1558 1558 1558
1551 1552 1552 1553 1553 1553 1554 1554 1554 1553 1553 1553 1554 1554 1554 1554 1554 1554 1554 1554 1554 1554 1554 1555 1555 1556 1557 1557 1558 1559 1559 1559 1559 1559 1560 1560 1560 1560 1559 1559 1559 1559 1559
1551 1551 1552 1552 1553 1553 1553 1552 1553 1553 1552 1552 1552 1552 1553 1553 1553 1553 1553 1553 1553 1553 1553 1554 1554 1555 1556 1556 1557 1558 1559 1559 1559 1559 1560 1560 1560 1560 1560 1560 1560 1560 1559
1551 1552 1552 1552 1552 1552 1552 1551 1551 1551 1551 1551 1551 1551 1551 1551 1552 1552 1552 1552 1552 1552 1552 1552 1553 1554 1554 1555 1556 1557 1558 1559 1559 1560 1560 1561 1561 1561 1561 1560 1560 1560 1560
1551 1551 1551 1551 1550 1550 1550 1550 1550 1550 1550 1550 1550 1550 1550 1550 1550 1550 1551 1551 1551 1551 1551 1551 1552 1552 1553 1554 1555 1557 1558 1558 1559 1560 1560 1561 1561 1561 1561 1561 1561 1561 1561
1550 1550 1549 1549 1549 1548 1548 1547 1547 1547 1547 1547 1547 1547 1547 1548 1548 1549 1549 1549 1549 1549 1550 1550 1550 1551 1552 1553 1554 1556 1557 1558 1559 1560 1560 1561 1561 1561 1561 1561 1561 1561 1561
1550 1549 1548 1548 1547 1546 1545 1545 1544 1545 1545 1545 1545 1545 1545 1545 1545 1546 1546 1547 1547 1548 1548 1548 1549 1550 1550 1551 1553 1554 1556 1557 1558 1559 1560 1560 1561 1561 1560 1560 1561 1561 1562
1551 1550 1548 1547 1546 1544 1543 1542 1542 1541 1542 1542 1542 1542 1542 1542 1542 1543 1543 1544 1545 1545 1546 1546 1547 1548 1549 1550 1551 1553 1555 1556 1557 1558 1559 1560 1560 1560 1559 1560 1560 1561 1561
1551 1550 1548 1547 1545 1543 1542 1540 1540 1539 1539 1539 1539 1538 1539 1539 1539 1539 1540 1541 1542 1543 1543 1544 1545 1546 1548 1549 1550 1552 1553 1555 1556 1557 1558 1559 1559 1559 1558 1558 1559 1560 1561
1550 1549 1547 1545 1543 1541 1540 1538 1537 1536 1536 1535 1535 1535 1535 1535 1535 1536 1537 1537 1538 1539 1541 1542 1543 1544 1546 1548 1549 1550 1552 1553 1555 1556 1557 1558 1558 1558 1557 1557 1558 1559 1560
1549 1547 1545 1543 1541 1539 1537 1536 1534 1533 1532 1532 1531 1531 1531 1531 1532 1532 1533 1534 1535 1536 1537 1539 1541 1543 1544 1546 1547 1548 1550 1551 1553 1554 1556 1557 1557 1557 1556 1556 1557 1558 1559
1547 1544 1542 1540 1538 1536 1534 1532 1531 1530 1529 1528 1527 1527 1527 1528 1528 1528 1529 1530 1531 1533 1534 1536 1537 1540 1541 1542 1544 1545 1547 1549 1550 1552 1554 1555 1556 1556 1556 1555 1556 1557 1558
1545 1542 1539 1537 1534 1532 1530 1528 1527 1526 1524 1524 1523 1523 1523 1523 1524 1524 1525 1526 1527 1529 1530 1531 1533 1535 1537 1539 1540 1542 1543 1545 1547 1550 1552 1553 1554 1555 1555 1555 1555 1556 1557
1543 1539 1536 1534 1531 1528 1526 1524 1523 1521 1520 1519 1519 1518 1518 1518 1519 1519 1520 1521 1522 1524 1525 1527 1528 1530 1532 1535 1537 1538 1540 1542 1544 1547 1549 1551 1552 1553 1554 1554 1554 1555 1555
1541 1538 1534 1531 1528 1525 1523 1521 1519 1517 1516 1515 1514 1513 1513 1513 1514 1514 1515 1516 1517 1519 1520 1522 1524 1525 1528 1531 1533 1535 1537 1539 1541 1544 1546 1548 1550 1551 1552 1553 1553 1553 1554
1540 1536 1532 1529 1525 1522 1519 1517 1514 1512 1511 1510 1509 1509 1508 1508 1508 1509 1510 1511 1512 1514 1515 1517 1519 1521 1523 1526 1529 1531 1533 1536 1538 1540 1542 1544 1547 1548 1550 1551 1552 1553 1553
1539 1535 1531 1527 1524 1520 1517 1514 1512 1509 1507 1506 1505 1504 1503 1503 1503 1503 1504 1506 1507 1508 1510 1512 1514 1516 1518 1521 1524 1527 1529 1532 1534 1536 1539 1541 1543 1545 1547 1549 1550 1551 1552
1538 1534 1531 1527 1523 1519 1516 1512 1510 1507 1504 1502 1500 1499 1498 1498 1498 1498 1499 1500 1501 1503 1504 1506 1509 1511 1513 1516 1519 1522 1524 1525 1529 1532 1534 1536 1539 1541 1543 1545 1547 1549 1551
1539 1535 1531 1527 1523 1519 1515 1511 1508 1505 1502 1499 1497 1495 1494 1493 1493 1493 1493 1494 1495 1497 1498 1500 1503 1505 1508 1510 1513 1516 1519 1520 1523 1526 1529 1532 1535 1537 1539 1542 1544 1546 1548
1539 1535 1531 1527 1523 1519 1515 1511 1508 1504 1501 1498 1495 1493 1491 1490 1489 1489 1489 1489 1489 1491 1492 1494 1496 1499 1502 1504 1507 1510 1513 1515 1518 1520 1523 1527 1530 1532 1535 1537 1540 1542 1544
1539 1535 1532 1527 1523 1519 1515 1511 1508 1504 1501 1498 1494 1491 1489 1487 1486 1485 1484 1484 1484 1485 1486 1488 1490 1493 1495 1498 1501 1504 1506 1509 1512 1515 1518 1521 1524 1527 1530 1533 1535 1538 1541